This demonstration page uses our WeatherBlox Daily Observations layout. Learn more.

Left ArrowRight Arrow

44.8408, -93.29828

Hourly Observations for October 6, 2022

Temp ( °F °C ) Dew Point ( °F °C ) Humidity (%) Winds ( mph kmh ) Pressure ( in mb ) Visibility ( mi km ) Precip ( " mm )
12:53 am 00:53 Mostly Cloudy 60 15.6 55 12.8 83 83 SSW 3 6 29.98 1015 10 16 0.00 0.00
1:53 am 01:53 Cloudy 60 15.6 55 12.8 83 83 WSW 3 6 29.98 1015 10 16 0.00 0.00
2:53 am 02:53 Cloudy 58 14.4 54 12.2 87 87 NW 7 11 30.00 1016 10 16 0.00 0.00
3:53 am 03:53 Cloudy 61 16.1 54 12.2 78 78 N 13 20 30.01 1016 10 16 0.00 0.00
4:45 am 04:45 Cloudy 60 15.6 53 11.7 78 78 N 12 19 30.03 1017 10 16 0.00 0.00
4:53 am 04:53 Cloudy 60 15.6 53 11.7 78 78 N 14 22 30.04 1017 10 16 0.00 0.00
5:16 am 05:16 Cloudy 59 15 47 8.3 64 64 N 17 28 30.05 1018 10 16 0.00 0.00
5:53 am 05:53 Mostly Cloudy 58 14.4 43 6.1 57 57 N 14 22 30.07 1018 10 16 0.00 0.00
6:53 am 06:53 Mostly Cloudy 55 12.8 43 6.1 64 64 N 13 20 30.11 1020 10 16 0.00 0.00
7:53 am 07:53 Mostly Cloudy 53 11.7 44 6.7 71 71 N 14 22 30.14 1021 10 16 0.00 0.00
8:53 am 08:53 Mostly Cloudy 54 12.2 44 6.7 69 69 N 15 24 30.18 1022 8 13 0.00 0.00
9:14 am 09:14 Cloudy 54 12.2 44 6.7 69 69 N 14 22 30.18 1022 9 14 0.00 0.00
9:45 am 09:45 Mostly Cloudy 55 12.8 43 6.1 64 64 NNE 16 26 30.19 1022 9 14 0.00 0.00
9:53 am 09:53 Mostly Cloudy 57 13.9 42 5.6 57 57 N 20 31 30.19 1022 10 16 0.00 0.00
10:53 am 10:53 Mostly Cloudy 54 12.2 37 2.8 53 53 N 18 30 30.23 1024 10 16 0.00 0.00
11:53 am 11:53 Mostly Cloudy 54 12.2 35 1.7 49 49 N 21 33 30.25 1025 10 16 0.00 0.00
12:53 pm 12:53 Mostly Sunny 55 12.8 31 -0.6 40 40 N 22 35 30.27 1025 10 16 0.00 0.00
1:53 pm 13:53 Mostly Sunny 55 12.8 30 -1.1 38 38 N 18 30 30.28 1025 10 16 0.00 0.00
2:53 pm 14:53 Mostly Sunny 54 12.2 31 -0.6 41 41 N 18 30 30.30 1026 10 16 0.00 0.00
3:53 pm 15:53 Mostly Cloudy 54 12.2 31 -0.6 41 41 N 15 24 30.32 1027 10 16 0.00 0.00
4:53 pm 16:53 Mostly Cloudy 51 10.6 31 -0.6 46 46 N 20 31 30.35 1028 10 16 0.00 0.00
5:53 pm 17:53 Partly Cloudy 51 10.6 31 -0.6 46 46 NNE 12 19 30.36 1028 10 16 0.00 0.00
6:53 pm 18:53 Mostly Cloudy 49 9.4 32 0 52 52 N 8 13 30.38 1029 10 16 0.00 0.00
7:53 pm 19:53 Mostly Cloudy 49 9.4 33 0.6 54 54 N 14 22 30.39 1029 10 16 0.00 0.00
8:53 pm 20:53 Mostly Cloudy 47 8.3 34 1.1 60 60 NNE 15 24 30.42 1030 10 16 0.00 0.00
9:53 pm 21:53 Mostly Cloudy 46 7.8 36 2.2 68 68 NNE 13 20 30.43 1031 10 16 0.00 0.00
10:53 pm 22:53 Cloudy 46 7.8 37 2.8 71 71 N 12 19 30.45 1031 10 16 0.00 0.00
11:53 pm 23:53 Cloudy 45 7.2 39 3.9 80 80 N 8 13 30.47 1032 10 16 0.01 0.13

Powered by AerisWeather